GEFSMW_prec_meanprecacc_168.txt.gz
Total_Precipitation_Accumulation
1.80 2.18 2.47 3.02 3.61 3.95 4.34 4.50 4.46 4.29 4.02 3.59 3.22 2.95 2.72 2.56 2.31 2.15 2.05 1.96 1.88 1.96 2.23 2.11 2.18 2.16 2.14 2.15 2.20 2.22 2.06 1.72 1.90 1.98 1.55 1.13 0.88 0.83 0.62 0.57 0.58 0.59 0.59
1.72 2.20 2.44 2.65 3.13 3.64 4.08 4.35 4.48 4.30 3.89 3.43 3.12 2.93 2.89 2.56 2.24 2.19 2.17 2.00 2.03 2.01 2.03 2.09 2.05 2.06 2.11 2.04 2.00 2.07 1.89 1.56 1.68 1.80 1.77 1.26 0.96 0.75 0.55 0.60 0.67 0.72 0.77
2.01 2.23 2.35 2.48 2.73 3.16 3.46 3.56 3.69 3.63 3.40 3.35 3.21 3.05 3.00 2.64 2.46 2.44 2.40 2.23 2.20 2.14 2.12 2.07 1.93 1.80 1.70 1.68 1.74 1.80 1.77 1.59 1.52 1.68 1.90 1.56 1.16 1.00 0.74 0.68 0.69 0.81 0.92
1.63 1.71 1.96 2.24 2.47 2.70 3.03 3.27 3.30 3.22 3.08 3.09 2.97 2.76 2.51 2.39 2.48 2.67 2.60 2.33 2.11 1.94 1.73 1.60 1.60 1.56 1.51 1.48 1.35 1.42 1.49 1.41 1.30 1.40 1.51 1.58 1.57 1.49 1.02 0.71 0.64 0.75 0.86
1.32 1.35 1.55 1.87 1.99 2.27 2.54 2.83 3.08 3.14 3.02 2.98 2.82 2.74 2.56 2.48 2.47 2.40 2.29 2.08 1.85 1.60 1.33 1.24 1.27 1.26 1.24 1.21 1.15 1.18 1.13 1.11 1.11 1.22 1.38 1.46 1.52 1.51 1.42 1.07 0.94 0.92 0.82
1.15 1.27 1.40 1.65 1.75 1.86 1.96 2.13 2.39 2.62 2.69 2.67 2.58 2.48 2.34 2.25 2.15 1.94 1.75 1.59 1.45 1.25 1.02 0.93 0.99 1.03 1.10 1.07 1.02 1.03 0.98 1.03 1.15 1.16 1.24 1.37 1.34 1.34 1.44 1.24 1.12 1.05 0.88
0.87 1.08 1.18 1.26 1.38 1.47 1.50 1.63 1.86 2.15 2.22 2.16 2.14 2.12 2.02 1.95 1.82 1.71 1.56 1.38 1.21 1.00 0.92 0.88 0.93 0.97 1.02 0.94 0.92 0.90 0.97 1.08 1.17 1.15 1.16 1.26 1.28 1.30 1.40 1.37 1.26 1.19 1.08
0.64 0.76 0.96 1.11 1.15 1.18 1.25 1.39 1.63 1.79 1.83 1.73 1.79 1.84 1.78 1.75 1.62 1.62 1.42 1.22 1.08 0.99 1.03 0.95 0.88 0.84 0.86 0.81 0.88 0.85 0.89 1.00 1.09 1.03 1.16 1.23 1.26 1.40 1.52 1.55 1.54 1.41 1.27
0.62 0.60 0.68 0.83 0.90 0.93 1.01 1.11 1.39 1.59 1.64 1.58 1.62 1.66 1.67 1.58 1.43 1.34 1.23 1.07 1.05 1.01 1.11 1.05 0.98 0.90 0.89 0.92 0.99 1.02 1.08 1.22 1.25 1.28 1.39 1.38 1.31 1.35 1.41 1.47 1.54 1.61 1.44
0.39 0.37 0.40 0.47 0.58 0.72 0.87 0.98 1.07 1.24 1.35 1.34 1.34 1.36 1.47 1.41 1.30 1.25 1.13 0.96 0.90 0.91 1.04 1.09 1.03 0.98 0.94 0.97 1.07 1.19 1.35 1.45 1.46 1.48 1.56 1.56 1.46 1.46 1.51 1.49 1.56 1.66 1.58
0.29 0.30 0.35 0.42 0.52 0.59 0.73 0.88 0.93 1.03 1.12 1.14 1.18 1.20 1.19 1.23 1.21 1.11 0.99 0.94 0.92 0.89 0.89 0.94 0.99 0.97 0.93 0.95 1.03 1.08 1.28 1.38 1.39 1.38 1.42 1.40 1.39 1.38 1.33 1.39 1.50 1.63 1.64
0.37 0.34 0.36 0.45 0.52 0.59 0.67 0.72 0.77 0.86 0.99 1.13 1.29 1.36 1.30 1.24 1.16 1.02 0.94 0.94 0.93 0.90 0.89 0.89 0.88 0.83 0.82 0.89 0.95 1.04 1.15 1.22 1.23 1.22 1.21 1.12 1.10 1.15 1.11 1.18 1.24 1.34 1.54
0.41 0.38 0.40 0.43 0.46 0.55 0.63 0.62 0.65 0.75 0.89 1.11 1.43 1.58 1.52 1.38 1.20 1.02 0.90 0.86 0.86 0.87 0.86 0.84 0.84 0.85 0.94 1.03 1.06 1.07 1.06 1.05 1.07 1.16 1.22 1.09 1.03 1.03 1.05 1.06 1.03 1.08 1.25
0.42 0.46 0.44 0.51 0.52 0.53 0.61 0.63 0.67 0.71 0.84 1.01 1.24 1.34 1.25 1.16 1.05 0.90 0.78 0.74 0.75 0.81 0.83 0.86 0.88 0.92 0.99 1.06 1.11 1.12 1.06 0.98 0.91 0.95 0.99 0.99 0.98 0.99 1.05 1.03 1.03 1.05 1.18
0.37 0.42 0.42 0.46 0.52 0.51 0.58 0.56 0.53 0.51 0.60 0.76 0.86 0.96 0.93 0.87 0.81 0.78 0.74 0.72 0.77 0.79 0.86 0.92 0.94 0.93 0.91 0.86 0.87 0.89 0.89 0.90 0.84 0.77 0.78 0.81 0.87 0.88 0.89 0.86 0.99 1.09 1.14
0.27 0.28 0.40 0.46 0.44 0.41 0.41 0.36 0.36 0.42 0.51 0.62 0.71 0.83 0.93 0.91 0.82 0.78 0.80 0.77 0.81 0.85 0.90 0.93 0.97 0.98 0.82 0.87 0.81 0.77 0.83 0.88 0.88 0.86 0.81 0.74 0.70 0.68 0.66 0.64 0.71 0.86 0.98
0.23 0.21 0.27 0.35 0.37 0.38 0.34 0.35 0.38 0.44 0.53 0.64 0.73 0.84 0.94 0.95 0.91 0.85 0.88 0.89 0.95 1.01 0.99 0.98 0.97 0.98 1.02 1.02 0.87 0.73 0.70 0.76 0.82 0.86 0.85 0.70 0.61 0.67 0.65 0.66 0.65 0.66 0.75
0.24 0.19 0.20 0.24 0.29 0.36 0.39 0.42 0.45 0.54 0.62 0.70 0.81 0.92 1.00 0.99 0.99 1.02 1.07 1.12 1.15 1.18 1.16 1.11 1.05 1.10 1.09 1.00 0.82 0.72 0.64 0.68 0.73 0.76 0.79 0.77 0.68 0.65 0.72 0.77 0.75 0.69 0.68
0.26 0.25 0.23 0.27 0.35 0.39 0.41 0.53 0.62 0.71 0.79 0.84 0.91 0.99 1.09 1.14 1.17 1.22 1.25 1.28 1.33 1.30 1.25 1.21 1.20 1.16 1.17 1.15 0.94 0.86 0.80 0.85 0.87 0.88 0.83 0.79 0.73 0.75 0.72 0.75 0.77 0.74 0.71
0.30 0.31 0.30 0.37 0.46 0.53 0.60 0.69 0.77 0.84 0.94 1.00 1.13 1.29 1.43 1.45 1.46 1.55 1.60 1.54 1.47 1.39 1.42 1.38 1.36 1.35 1.40 1.49 1.26 1.12 1.05 1.07 1.03 1.07 0.98 0.88 0.80 0.79 0.75 0.71 0.74 0.72 0.73
0.37 0.35 0.34 0.42 0.57 0.69 0.79 0.90 1.03 1.13 1.09 1.14 1.29 1.51 1.66 1.73 1.77 1.87 1.88 1.85 1.81 1.78 1.72 1.61 1.58 1.58 1.61 1.69 1.48 1.33 1.25 1.27 1.31 1.28 1.16 1.11 1.01 0.85 0.80 0.74 0.75 0.75 0.77
0.43 0.43 0.42 0.54 0.69 0.83 0.90 1.02 1.09 1.10 1.12 1.19 1.33 1.47 1.63 1.67 1.74 1.93 1.99 2.02 2.01 1.94 1.88 1.82 1.69 1.67 1.65 1.57 1.41 1.25 1.18 1.27 1.40 1.45 1.35 1.26 1.12 0.90 0.80 0.73 0.72 0.73 0.68
0.43 0.45 0.50 0.68 0.84 0.99 1.08 1.15 1.09 1.16 1.21 1.28 1.41 1.53 1.62 1.70 1.78 1.82 1.81 1.84 1.91 1.90 1.82 1.81 1.74 1.70 1.69 1.63 1.36 1.15 1.08 1.12 1.22 1.36 1.40 1.25 1.08 0.91 0.79 0.75 0.72 0.66 0.60
0.36 0.41 0.50 0.62 0.73 0.84 0.94 1.08 1.16 1.24 1.30 1.38 1.42 1.50 1.62 1.65 1.68 1.80 1.88 1.94 2.03 2.09 1.99 1.88 1.80 1.75 1.70 1.59 1.41 1.23 1.13 1.16 1.25 1.35 1.40 1.27 1.14 0.98 0.90 0.81 0.72 0.67 0.71
0.38 0.42 0.53 0.59 0.66 0.71 0.78 0.87 0.96 1.09 1.19 1.26 1.33 1.39 1.45 1.54 1.62 1.67 1.74 1.75 1.81 1.80 1.76 1.70 1.69 1.68 1.64 1.49 1.39 1.28 1.18 1.23 1.33 1.38 1.45 1.35 1.29 1.21 1.11 1.03 0.97 0.95 0.95
0.43 0.47 0.51 0.54 0.59 0.64 0.76 0.84 0.93 1.08 1.22 1.32 1.36 1.32 1.31 1.38 1.44 1.49 1.47 1.43 1.35 1.31 1.26 1.25 1.26 1.26 1.21 1.13 1.02 0.98 0.98 1.03 1.17 1.24 1.41 1.47 1.44 1.39 1.31 1.19 1.09 1.04 1.00

GEFSMW_prec_meanprecacc_174.txt.gz
Total_Precipitation_Accumulation
1.84 2.21 2.49 3.07 3.67 4.01 4.40 4.53 4.48 4.32 4.05 3.62 3.26 3.00 2.75 2.59 2.35 2.18 2.08 1.97 1.89 1.98 2.26 2.14 2.21 2.19 2.18 2.18 2.22 2.24 2.09 1.76 1.95 2.03 1.61 1.20 0.94 0.89 0.67 0.61 0.62 0.63 0.61
1.76 2.24 2.48 2.69 3.18 3.69 4.13 4.40 4.51 4.34 3.94 3.48 3.19 3.01 2.93 2.59 2.28 2.22 2.20 2.02 2.05 2.05 2.06 2.12 2.08 2.08 2.14 2.06 2.03 2.11 1.92 1.59 1.71 1.84 1.83 1.35 1.07 0.83 0.60 0.65 0.71 0.77 0.81
2.03 2.26 2.39 2.52 2.77 3.20 3.49 3.59 3.72 3.66 3.44 3.40 3.29 3.12 3.06 2.68 2.50 2.48 2.44 2.26 2.24 2.18 2.15 2.09 1.97 1.84 1.73 1.70 1.76 1.83 1.80 1.62 1.55 1.71 1.92 1.58 1.19 1.02 0.76 0.71 0.74 0.87 0.97
1.67 1.76 2.03 2.31 2.52 2.75 3.07 3.30 3.33 3.25 3.12 3.14 3.05 2.85 2.61 2.47 2.52 2.71 2.65 2.39 2.17 1.98 1.77 1.64 1.64 1.61 1.55 1.51 1.38 1.44 1.51 1.43 1.32 1.43 1.53 1.59 1.58 1.49 1.04 0.75 0.69 0.82 0.90
1.40 1.47 1.66 1.95 2.06 2.35 2.61 2.88 3.12 3.18 3.07 3.04 2.91 2.85 2.67 2.59 2.56 2.48 2.37 2.15 1.92 1.66 1.40 1.31 1.33 1.32 1.30 1.25 1.19 1.22 1.15 1.12 1.12 1.24 1.40 1.49 1.54 1.53 1.43 1.09 0.98 0.96 0.85
1.23 1.39 1.53 1.73 1.82 1.95 2.08 2.21 2.44 2.67 2.75 2.75 2.68 2.60 2.46 2.37 2.26 2.07 1.87 1.67 1.53 1.31 1.10 1.01 1.07 1.13 1.18 1.13 1.07 1.08 1.02 1.05 1.16 1.18 1.26 1.39 1.36 1.37 1.46 1.25 1.13 1.07 0.90
0.95 1.15 1.25 1.34 1.45 1.53 1.58 1.69 1.91 2.20 2.28 2.23 2.22 2.22 2.15 2.07 1.94 1.85 1.69 1.48 1.29 1.06 0.99 0.94 0.99 1.04 1.10 1.01 0.98 0.97 1.01 1.11 1.20 1.18 1.18 1.28 1.30 1.32 1.43 1.40 1.27 1.20 1.10
0.71 0.84 1.02 1.20 1.26 1.27 1.33 1.44 1.69 1.86 1.90 1.81 1.87 1.93 1.89 1.88 1.76 1.78 1.58 1.34 1.19 1.10 1.12 1.04 0.96 0.92 0.94 0.90 0.99 0.94 0.94 1.05 1.13 1.06 1.20 1.26 1.28 1.42 1.54 1.58 1.57 1.43 1.29
0.69 0.72 0.77 0.91 0.97 0.99 1.06 1.16 1.46 1.66 1.71 1.67 1.70 1.74 1.76 1.69 1.54 1.46 1.36 1.18 1.16 1.13 1.24 1.18 1.10 1.02 1.00 1.03 1.10 1.12 1.15 1.27 1.30 1.33 1.45 1.42 1.34 1.37 1.43 1.50 1.57 1.64 1.46
0.49 0.52 0.50 0.55 0.67 0.81 0.96 1.07 1.17 1.35 1.49 1.48 1.47 1.46 1.57 1.51 1.39 1.36 1.23 1.04 0.97 0.99 1.13 1.18 1.14 1.09 1.06 1.10 1.20 1.28 1.43 1.54 1.54 1.57 1.64 1.61 1.50 1.49 1.54 1.53 1.60 1.70 1.60
0.35 0.40 0.45 0.50 0.63 0.74 0.85 0.97 1.02 1.14 1.26 1.29 1.32 1.31 1.28 1.32 1.31 1.21 1.07 1.02 1.00 0.96 0.96 1.02 1.08 1.09 1.10 1.14 1.20 1.24 1.45 1.55 1.53 1.51 1.53 1.48 1.46 1.45 1.40 1.46 1.58 1.70 1.70
0.43 0.43 0.50 0.54 0.64 0.73 0.78 0.81 0.85 0.95 1.09 1.23 1.40 1.46 1.39 1.34 1.25 1.10 1.02 1.02 1.01 0.99 1.00 1.04 1.05 0.98 0.96 1.06 1.10 1.16 1.31 1.38 1.36 1.33 1.34 1.22 1.21 1.24 1.20 1.28 1.34 1.42 1.60
0.50 0.52 0.55 0.50 0.54 0.64 0.72 0.68 0.70 0.82 0.97 1.19 1.51 1.65 1.60 1.47 1.30 1.12 0.99 0.96 0.97 1.00 1.02 1.01 1.02 1.01 1.08 1.17 1.19 1.19 1.18 1.18 1.20 1.30 1.35 1.20 1.15 1.12 1.13 1.15 1.12 1.16 1.33
0.55 0.60 0.56 0.59 0.61 0.59 0.66 0.67 0.71 0.76 0.90 1.08 1.29 1.39 1.29 1.20 1.13 1.00 0.90 0.87 0.89 0.95 0.97 0.99 1.00 1.05 1.14 1.19 1.23 1.23 1.17 1.09 1.04 1.08 1.11 1.09 1.08 1.08 1.18 1.18 1.16 1.17 1.28
0.48 0.49 0.46 0.51 0.56 0.56 0.63 0.60 0.55 0.54 0.65 0.82 0.92 1.01 0.98 0.91 0.88 0.86 0.84 0.83 0.91 0.92 0.99 1.05 1.06 1.04 1.02 0.97 0.96 0.99 0.99 1.03 0.98 0.91 0.90 0.92 1.00 1.02 1.03 0.99 1.11 1.21 1.24
0.31 0.31 0.42 0.48 0.46 0.44 0.46 0.39 0.40 0.47 0.57 0.68 0.77 0.90 0.99 0.97 0.90 0.87 0.88 0.87 0.94 0.97 1.01 1.03 1.10 1.10 0.92 0.99 0.98 0.94 1.02 1.09 1.07 1.04 0.97 0.91 0.89 0.85 0.81 0.79 0.85 0.99 1.10
0.27 0.23 0.29 0.37 0.39 0.40 0.36 0.37 0.42 0.50 0.60 0.71 0.80 0.91 1.03 1.08 1.03 0.94 0.98 0.99 1.04 1.10 1.08 1.07 1.07 1.08 1.11 1.14 1.02 0.88 0.85 0.91 0.97 1.00 1.00 0.86 0.78 0.84 0.81 0.83 0.79 0.79 0.88
0.28 0.22 0.22 0.26 0.32 0.38 0.42 0.47 0.54 0.63 0.70 0.78 0.88 1.03 1.12 1.11 1.10 1.12 1.16 1.19 1.23 1.26 1.24 1.20 1.14 1.17 1.17 1.09 0.92 0.83 0.75 0.79 0.85 0.91 0.96 0.95 0.86 0.83 0.89 0.92 0.89 0.82 0.79
0.29 0.27 0.25 0.30 0.37 0.42 0.44 0.58 0.71 0.83 0.91 0.93 0.98 1.09 1.21 1.24 1.27 1.32 1.33 1.37 1.42 1.37 1.32 1.30 1.33 1.30 1.31 1.26 1.05 0.97 0.90 0.96 1.00 1.02 1.01 0.99 0.91 0.96 0.92 0.91 0.92 0.87 0.82
0.34 0.34 0.33 0.40 0.48 0.56 0.62 0.72 0.82 0.91 1.04 1.10 1.20 1.36 1.51 1.53 1.54 1.63 1.69 1.64 1.57 1.48 1.49 1.47 1.47 1.49 1.54 1.63 1.40 1.25 1.16 1.21 1.20 1.24 1.15 1.05 0.97 0.97 0.91 0.85 0.87 0.83 0.82
0.42 0.40 0.39 0.46 0.60 0.71 0.81 0.93 1.07 1.16 1.13 1.20 1.35 1.57 1.71 1.79 1.84 1.94 1.97 1.94 1.91 1.88 1.82 1.71 1.67 1.68 1.73 1.83 1.62 1.46 1.38 1.42 1.47 1.44 1.31 1.27 1.20 1.04 0.97 0.89 0.88 0.87 0.88
0.51 0.50 0.49 0.60 0.74 0.87 0.93 1.04 1.11 1.13 1.17 1.25 1.39 1.52 1.66 1.71 1.78 1.99 2.06 2.10 2.11 2.05 1.98 1.92 1.78 1.75 1.73 1.65 1.51 1.36 1.30 1.41 1.56 1.62 1.53 1.44 1.32 1.10 1.01 0.91 0.87 0.86 0.80
0.50 0.52 0.56 0.74 0.91 1.02 1.11 1.18 1.13 1.21 1.27 1.34 1.47 1.59 1.68 1.76 1.85 1.89 1.88 1.91 1.97 1.97 1.90 1.91 1.83 1.76 1.74 1.69 1.42 1.21 1.13 1.17 1.28 1.45 1.51 1.39 1.22 1.05 0.92 0.88 0.84 0.76 0.67
0.41 0.45 0.55 0.66 0.78 0.87 0.97 1.11 1.20 1.30 1.37 1.43 1.48 1.56 1.68 1.71 1.74 1.86 1.93 1.98 2.07 2.14 2.05 1.94 1.85 1.79 1.72 1.62 1.43 1.24 1.14 1.18 1.27 1.37 1.43 1.30 1.17 1.02 0.94 0.86 0.78 0.72 0.76
0.42 0.47 0.57 0.64 0.70 0.75 0.83 0.92 1.02 1.15 1.25 1.32 1.38 1.43 1.48 1.56 1.64 1.70 1.77 1.77 1.83 1.81 1.78 1.73 1.71 1.69 1.64 1.49 1.40 1.29 1.18 1.23 1.33 1.39 1.46 1.36 1.31 1.23 1.14 1.07 1.00 0.98 0.99
0.50 0.53 0.57 0.59 0.63 0.68 0.80 0.90 0.99 1.14 1.28 1.37 1.39 1.35 1.34 1.39 1.45 1.50 1.48 1.44 1.36 1.32 1.27 1.27 1.28 1.26 1.21 1.14 1.03 0.99 0.99 1.05 1.19 1.26 1.42 1.49 1.46 1.41 1.33 1.21 1.11 1.06 1.01

GEFSMW_prec_meanprecacc_180.txt.gz
Total_Precipitation_Accumulation
1.84 2.22 2.51 3.09 3.71 4.07 4.44 4.56 4.50 4.35 4.12 3.69 3.34 3.08 2.85 2.67 2.42 2.24 2.15 2.03 1.93 2.01 2.29 2.18 2.25 2.22 2.21 2.21 2.25 2.28 2.13 1.80 1.98 2.05 1.65 1.24 0.97 0.92 0.69 0.64 0.66 0.66 0.64
1.76 2.25 2.49 2.71 3.21 3.73 4.16 4.42 4.54 4.39 4.00 3.55 3.27 3.07 3.00 2.66 2.37 2.32 2.30 2.12 2.12 2.11 2.12 2.17 2.12 2.13 2.19 2.10 2.07 2.14 1.95 1.62 1.73 1.87 1.92 1.42 1.12 0.88 0.63 0.67 0.75 0.80 0.84
2.04 2.27 2.41 2.55 2.81 3.24 3.54 3.64 3.78 3.73 3.52 3.49 3.40 3.20 3.13 2.75 2.57 2.54 2.51 2.34 2.32 2.24 2.21 2.15 2.03 1.91 1.81 1.76 1.80 1.86 1.83 1.66 1.58 1.75 1.98 1.62 1.21 1.04 0.78 0.73 0.76 0.90 1.01
1.69 1.78 2.06 2.37 2.58 2.80 3.11 3.35 3.39 3.32 3.19 3.23 3.15 2.93 2.69 2.53 2.58 2.77 2.73 2.49 2.27 2.07 1.84 1.70 1.71 1.68 1.61 1.56 1.41 1.46 1.53 1.46 1.35 1.46 1.56 1.61 1.59 1.50 1.04 0.76 0.70 0.82 0.92
1.42 1.51 1.70 2.00 2.12 2.40 2.66 2.93 3.20 3.25 3.15 3.12 3.00 2.95 2.75 2.67 2.67 2.59 2.47 2.24 2.01 1.74 1.48 1.37 1.40 1.39 1.36 1.28 1.22 1.24 1.17 1.14 1.13 1.26 1.43 1.52 1.56 1.54 1.44 1.09 0.99 0.97 0.85
1.25 1.43 1.59 1.79 1.89 2.02 2.14 2.27 2.50 2.74 2.82 2.82 2.75 2.67 2.54 2.45 2.36 2.16 1.95 1.75 1.60 1.38 1.16 1.07 1.13 1.20 1.24 1.18 1.13 1.14 1.07 1.08 1.18 1.20 1.28 1.41 1.39 1.40 1.49 1.26 1.14 1.08 0.91
0.97 1.19 1.31 1.39 1.51 1.60 1.64 1.77 1.99 2.28 2.34 2.30 2.28 2.30 2.24 2.17 2.04 1.95 1.77 1.56 1.36 1.11 1.05 1.04 1.07 1.11 1.17 1.08 1.06 1.04 1.08 1.16 1.24 1.22 1.22 1.31 1.33 1.35 1.46 1.41 1.28 1.20 1.11
0.74 0.88 1.07 1.27 1.33 1.34 1.40 1.50 1.75 1.94 1.98 1.87 1.94 2.03 2.00 2.00 1.88 1.90 1.69 1.42 1.24 1.16 1.20 1.15 1.07 1.01 1.04 0.98 1.08 1.02 1.02 1.13 1.19 1.10 1.24 1.29 1.31 1.46 1.57 1.61 1.59 1.44 1.30
0.71 0.76 0.83 0.98 1.03 1.05 1.11 1.23 1.55 1.76 1.81 1.78 1.83 1.90 1.92 1.84 1.70 1.60 1.48 1.28 1.26 1.22 1.33 1.28 1.21 1.13 1.12 1.15 1.24 1.23 1.25 1.37 1.37 1.37 1.50 1.47 1.38 1.42 1.47 1.54 1.60 1.67 1.48
0.51 0.55 0.55 0.61 0.73 0.88 1.06 1.18 1.26 1.47 1.64 1.65 1.64 1.64 1.74 1.66 1.54 1.47 1.31 1.13 1.06 1.09 1.23 1.28 1.24 1.18 1.17 1.25 1.35 1.40 1.53 1.63 1.63 1.66 1.72 1.67 1.54 1.54 1.59 1.59 1.65 1.76 1.64
0.39 0.44 0.49 0.54 0.67 0.79 0.95 1.11 1.15 1.27 1.39 1.44 1.51 1.49 1.45 1.47 1.43 1.30 1.14 1.08 1.06 1.02 1.03 1.12 1.19 1.17 1.20 1.25 1.31 1.35 1.56 1.65 1.63 1.60 1.60 1.53 1.51 1.49 1.44 1.52 1.64 1.76 1.75
0.46 0.48 0.55 0.60 0.70 0.79 0.84 0.90 0.96 1.07 1.21 1.35 1.51 1.56 1.50 1.47 1.39 1.20 1.08 1.06 1.05 1.04 1.05 1.13 1.17 1.08 1.06 1.17 1.24 1.29 1.42 1.50 1.48 1.43 1.42 1.28 1.27 1.30 1.25 1.33 1.39 1.48 1.66
0.53 0.55 0.59 0.58 0.63 0.72 0.79 0.74 0.78 0.91 1.07 1.29 1.60 1.72 1.67 1.55 1.39 1.21 1.05 1.00 1.03 1.07 1.08 1.09 1.12 1.13 1.19 1.28 1.30 1.29 1.27 1.27 1.29 1.39 1.46 1.29 1.25 1.20 1.21 1.22 1.19 1.23 1.39
0.59 0.64 0.61 0.66 0.69 0.67 0.74 0.74 0.77 0.83 0.96 1.14 1.36 1.45 1.35 1.25 1.18 1.09 0.98 0.93 0.96 1.03 1.07 1.10 1.10 1.15 1.25 1.28 1.33 1.33 1.25 1.17 1.14 1.20 1.26 1.27 1.25 1.23 1.30 1.27 1.24 1.24 1.35
0.53 0.53 0.51 0.56 0.63 0.63 0.70 0.66 0.61 0.59 0.68 0.86 0.98 1.08 1.06 0.99 0.95 0.95 0.93 0.90 0.99 1.01 1.07 1.15 1.15 1.11 1.09 1.04 1.04 1.06 1.07 1.10 1.06 1.01 1.01 1.04 1.13 1.15 1.15 1.09 1.20 1.30 1.34
0.35 0.34 0.44 0.51 0.50 0.48 0.50 0.44 0.45 0.52 0.63 0.74 0.84 0.97 1.06 1.04 0.97 0.93 0.95 0.93 1.01 1.06 1.10 1.12 1.18 1.17 0.97 1.05 1.05 1.03 1.13 1.20 1.17 1.11 1.04 0.99 0.98 0.94 0.91 0.91 0.96 1.11 1.22
0.30 0.25 0.30 0.38 0.41 0.43 0.39 0.40 0.48 0.58 0.68 0.79 0.87 0.99 1.09 1.13 1.09 1.01 1.04 1.05 1.12 1.19 1.17 1.15 1.15 1.16 1.18 1.21 1.10 0.98 0.93 1.00 1.05 1.08 1.07 0.94 0.86 0.93 0.89 0.92 0.89 0.88 0.97
0.31 0.24 0.24 0.27 0.34 0.41 0.45 0.51 0.61 0.73 0.79 0.86 0.95 1.09 1.19 1.19 1.17 1.19 1.24 1.29 1.35 1.38 1.36 1.30 1.23 1.26 1.26 1.18 1.01 0.94 0.86 0.89 0.94 0.99 1.04 1.04 0.95 0.94 1.00 1.02 0.98 0.90 0.87
0.34 0.31 0.28 0.34 0.42 0.46 0.49 0.64 0.79 0.93 0.99 0.98 1.03 1.15 1.27 1.32 1.35 1.40 1.45 1.50 1.55 1.49 1.44 1.42 1.42 1.37 1.37 1.34 1.13 1.06 0.98 1.03 1.06 1.09 1.08 1.06 0.99 1.06 1.03 1.01 1.02 0.96 0.91
0.40 0.39 0.38 0.46 0.55 0.61 0.66 0.78 0.87 0.96 1.08 1.16 1.28 1.44 1.60 1.64 1.67 1.77 1.85 1.78 1.70 1.58 1.58 1.55 1.53 1.55 1.62 1.74 1.50 1.36 1.28 1.31 1.29 1.33 1.23 1.14 1.06 1.08 1.02 0.95 0.98 0.97 0.97
0.48 0.44 0.44 0.52 0.66 0.76 0.85 0.97 1.10 1.19 1.16 1.24 1.41 1.62 1.77 1.85 1.91 2.03 2.07 2.02 2.00 1.96 1.88 1.76 1.71 1.72 1.77 1.89 1.70 1.55 1.47 1.52 1.57 1.53 1.40 1.36 1.31 1.16 1.14 1.09 1.07 1.08 1.08
0.57 0.55 0.54 0.66 0.81 0.94 0.99 1.09 1.15 1.18 1.21 1.27 1.41 1.54 1.68 1.72 1.79 2.01 2.11 2.17 2.18 2.12 2.03 1.97 1.82 1.78 1.77 1.70 1.57 1.42 1.37 1.49 1.64 1.71 1.61 1.52 1.42 1.21 1.15 1.08 1.08 1.09 1.02
0.56 0.57 0.61 0.79 0.96 1.10 1.18 1.24 1.18 1.24 1.30 1.36 1.49 1.61 1.69 1.77 1.86 1.91 1.91 1.97 2.04 2.03 1.95 1.95 1.87 1.81 1.78 1.73 1.48 1.25 1.17 1.21 1.32 1.50 1.57 1.47 1.33 1.16 1.04 1.02 0.98 0.90 0.80
0.45 0.49 0.59 0.70 0.81 0.91 1.01 1.15 1.24 1.32 1.39 1.46 1.51 1.58 1.69 1.72 1.75 1.87 1.95 2.01 2.10 2.19 2.10 1.99 1.90 1.84 1.77 1.65 1.47 1.27 1.17 1.20 1.29 1.40 1.47 1.35 1.23 1.07 0.99 0.93 0.84 0.77 0.81
0.45 0.49 0.59 0.65 0.72 0.77 0.85 0.95 1.04 1.17 1.27 1.34 1.40 1.45 1.49 1.57 1.65 1.70 1.79 1.80 1.86 1.84 1.81 1.77 1.75 1.73 1.68 1.52 1.43 1.31 1.20 1.24 1.35 1.41 1.47 1.38 1.33 1.26 1.18 1.10 1.03 1.00 1.01
0.52 0.56 0.59 0.61 0.65 0.70 0.83 0.93 1.02 1.16 1.30 1.39 1.41 1.37 1.35 1.40 1.46 1.50 1.49 1.46 1.38 1.35 1.31 1.31 1.32 1.30 1.25 1.17 1.06 1.01 1.01 1.06 1.20 1.27 1.43 1.50 1.47 1.43 1.36 1.24 1.13 1.08 1.03

GEFSMW_prec_meanprecacc_186.txt.gz
Total_Precipitation_Accumulation
1.84 2.22 2.51 3.09 3.71 4.08 4.45 4.58 4.54 4.38 4.15 3.72 3.37 3.11 2.88 2.71 2.46 2.28 2.19 2.06 1.97 2.05 2.35 2.23 2.31 2.28 2.26 2.28 2.31 2.32 2.19 1.86 2.05 2.14 1.73 1.30 0.99 0.94 0.72 0.66 0.67 0.67 0.65
1.76 2.25 2.50 2.71 3.22 3.74 4.18 4.45 4.58 4.42 4.04 3.59 3.31 3.12 3.06 2.71 2.41 2.37 2.35 2.16 2.17 2.16 2.16 2.21 2.18 2.20 2.27 2.19 2.15 2.21 2.01 1.68 1.81 1.96 2.02 1.50 1.16 0.90 0.64 0.68 0.76 0.82 0.86
2.04 2.28 2.42 2.56 2.82 3.26 3.57 3.67 3.81 3.76 3.56 3.54 3.48 3.32 3.22 2.81 2.63 2.60 2.58 2.40 2.37 2.30 2.25 2.20 2.09 2.00 1.89 1.84 1.89 1.95 1.91 1.74 1.66 1.83 2.08 1.71 1.28 1.08 0.79 0.73 0.77 0.91 1.04
1.69 1.79 2.07 2.37 2.60 2.83 3.14 3.37 3.42 3.34 3.22 3.26 3.22 3.04 2.79 2.61 2.66 2.86 2.83 2.56 2.33 2.12 1.88 1.76 1.78 1.76 1.69 1.64 1.49 1.53 1.60 1.54 1.42 1.54 1.63 1.69 1.67 1.57 1.08 0.77 0.71 0.84 0.94
1.43 1.52 1.71 2.02 2.16 2.44 2.68 2.96 3.22 3.27 3.18 3.17 3.06 3.02 2.84 2.77 2.78 2.69 2.57 2.33 2.08 1.80 1.53 1.42 1.47 1.48 1.43 1.35 1.29 1.33 1.25 1.20 1.21 1.35 1.51 1.60 1.63 1.61 1.50 1.14 1.02 0.99 0.86
1.26 1.43 1.61 1.84 1.94 2.06 2.18 2.30 2.52 2.77 2.87 2.87 2.79 2.75 2.63 2.56 2.46 2.26 2.06 1.85 1.69 1.45 1.23 1.13 1.20 1.28 1.31 1.27 1.23 1.25 1.16 1.16 1.28 1.29 1.37 1.50 1.48 1.48 1.56 1.33 1.20 1.12 0.92
0.97 1.19 1.32 1.42 1.53 1.65 1.73 1.83 2.03 2.31 2.38 2.34 2.32 2.37 2.32 2.26 2.15 2.09 1.92 1.69 1.46 1.18 1.11 1.11 1.15 1.19 1.25 1.17 1.16 1.14 1.17 1.27 1.35 1.31 1.29 1.37 1.39 1.42 1.53 1.49 1.34 1.25 1.13
0.74 0.88 1.08 1.27 1.33 1.37 1.46 1.55 1.80 1.96 2.01 1.91 1.98 2.09 2.08 2.13 2.03 2.05 1.85 1.56 1.34 1.22 1.26 1.22 1.14 1.10 1.14 1.07 1.17 1.12 1.14 1.24 1.30 1.18 1.33 1.36 1.36 1.51 1.63 1.69 1.68 1.52 1.36
0.72 0.77 0.83 0.98 1.04 1.07 1.15 1.26 1.60 1.80 1.85 1.82 1.89 1.97 2.01 1.98 1.87 1.76 1.60 1.37 1.33 1.28 1.37 1.34 1.27 1.20 1.20 1.24 1.34 1.32 1.35 1.48 1.47 1.46 1.59 1.54 1.45 1.49 1.53 1.62 1.70 1.78 1.59
0.52 0.56 0.55 0.62 0.74 0.90 1.08 1.22 1.32 1.52 1.68 1.71 1.72 1.74 1.84 1.76 1.64 1.57 1.39 1.21 1.12 1.15 1.29 1.35 1.30 1.24 1.24 1.34 1.45 1.50 1.63 1.73 1.71 1.74 1.80 1.75 1.63 1.62 1.68 1.67 1.75 1.86 1.75
0.40 0.44 0.50 0.55 0.69 0.81 0.97 1.13 1.18 1.30 1.43 1.49 1.58 1.56 1.52 1.54 1.52 1.40 1.24 1.17 1.12 1.10 1.12 1.20 1.27 1.24 1.26 1.34 1.41 1.43 1.65 1.75 1.73 1.69 1.69 1.63 1.63 1.60 1.55 1.62 1.73 1.84 1.85
0.47 0.48 0.55 0.61 0.71 0.80 0.85 0.91 0.98 1.09 1.23 1.39 1.57 1.63 1.57 1.56 1.49 1.31 1.18 1.14 1.12 1.13 1.15 1.22 1.23 1.14 1.12 1.25 1.32 1.37 1.51 1.60 1.58 1.53 1.53 1.39 1.39 1.42 1.37 1.45 1.52 1.61 1.80
0.53 0.55 0.59 0.58 0.64 0.73 0.81 0.76 0.80 0.93 1.09 1.32 1.65 1.79 1.75 1.64 1.51 1.34 1.16 1.09 1.10 1.15 1.15 1.16 1.18 1.19 1.26 1.37 1.39 1.38 1.36 1.37 1.41 1.53 1.61 1.44 1.41 1.36 1.37 1.38 1.36 1.41 1.56
0.59 0.65 0.61 0.66 0.70 0.68 0.76 0.76 0.79 0.85 0.99 1.17 1.41 1.52 1.42 1.34 1.28 1.19 1.08 1.02 1.03 1.10 1.13 1.16 1.16 1.21 1.33 1.36 1.41 1.42 1.34 1.27 1.27 1.34 1.39 1.41 1.41 1.38 1.46 1.43 1.40 1.39 1.48
0.53 0.54 0.51 0.57 0.64 0.66 0.73 0.68 0.63 0.63 0.73 0.91 1.03 1.14 1.13 1.08 1.04 1.04 1.03 0.98 1.07 1.12 1.18 1.22 1.21 1.18 1.20 1.14 1.13 1.16 1.16 1.19 1.14 1.08 1.08 1.13 1.23 1.25 1.26 1.19 1.30 1.41 1.45
0.36 0.35 0.44 0.51 0.51 0.51 0.55 0.47 0.49 0.58 0.69 0.80 0.90 1.03 1.14 1.12 1.04 1.01 1.03 1.00 1.08 1.13 1.17 1.17 1.23 1.22 1.03 1.10 1.09 1.09 1.21 1.27 1.24 1.17 1.10 1.05 1.05 0.99 0.96 0.95 1.02 1.20 1.32
0.31 0.26 0.30 0.39 0.41 0.44 0.42 0.45 0.53 0.64 0.75 0.86 0.92 1.03 1.14 1.19 1.15 1.07 1.13 1.13 1.19 1.26 1.24 1.20 1.20 1.22 1.25 1.27 1.15 1.01 0.98 1.06 1.11 1.13 1.11 0.97 0.89 0.97 0.94 0.97 0.94 0.95 1.05
0.32 0.25 0.25 0.28 0.35 0.41 0.48 0.55 0.66 0.81 0.88 0.94 1.01 1.13 1.23 1.24 1.24 1.26 1.32 1.42 1.48 1.48 1.45 1.39 1.31 1.34 1.37 1.30 1.10 1.01 0.94 0.99 1.04 1.09 1.13 1.12 1.04 1.03 1.11 1.15 1.10 1.02 0.99
0.34 0.32 0.29 0.36 0.44 0.48 0.52 0.68 0.84 1.00 1.05 1.03 1.08 1.19 1.31 1.38 1.45 1.50 1.51 1.56 1.63 1.59 1.54 1.54 1.57 1.53 1.58 1.55 1.30 1.20 1.11 1.14 1.17 1.21 1.21 1.18 1.10 1.16 1.13 1.12 1.12 1.06 1.01
0.41 0.40 0.39 0.47 0.57 0.63 0.68 0.81 0.91 1.00 1.13 1.19 1.31 1.48 1.64 1.68 1.73 1.87 1.95 1.86 1.77 1.66 1.70 1.71 1.73 1.73 1.79 1.91 1.65 1.47 1.38 1.41 1.38 1.42 1.34 1.25 1.18 1.20 1.15 1.05 1.08 1.07 1.07
0.50 0.47 0.47 0.55 0.68 0.79 0.88 1.00 1.13 1.22 1.21 1.29 1.44 1.65 1.80 1.88 1.95 2.09 2.17 2.15 2.13 2.10 2.03 1.94 1.92 1.90 1.92 2.03 1.79 1.61 1.52 1.57 1.64 1.62 1.48 1.44 1.39 1.23 1.20 1.15 1.15 1.19 1.20
0.60 0.59 0.59 0.70 0.84 0.97 1.02 1.12 1.18 1.21 1.24 1.30 1.42 1.55 1.69 1.72 1.80 2.02 2.14 2.21 2.24 2.21 2.12 2.04 1.91 1.90 1.87 1.79 1.66 1.52 1.46 1.57 1.72 1.79 1.67 1.57 1.47 1.26 1.20 1.13 1.16 1.18 1.09
0.60 0.61 0.66 0.84 1.00 1.12 1.20 1.27 1.20 1.27 1.32 1.38 1.50 1.61 1.70 1.78 1.87 1.92 1.92 2.00 2.09 2.09 2.01 2.00 1.93 1.88 1.88 1.83 1.57 1.33 1.24 1.27 1.36 1.53 1.60 1.49 1.36 1.19 1.07 1.05 1.03 0.95 0.85
0.48 0.52 0.61 0.72 0.82 0.92 1.03 1.17 1.26 1.34 1.41 1.48 1.52 1.59 1.70 1.74 1.76 1.88 1.96 2.02 2.12 2.22 2.13 2.02 1.94 1.89 1.83 1.71 1.52 1.31 1.21 1.24 1.32 1.42 1.49 1.37 1.25 1.10 1.02 0.97 0.89 0.83 0.87
0.48 0.51 0.61 0.66 0.73 0.78 0.86 0.96 1.06 1.19 1.29 1.36 1.42 1.47 1.51 1.59 1.66 1.71 1.79 1.81 1.87 1.86 1.83 1.78 1.78 1.77 1.71 1.55 1.46 1.34 1.22 1.26 1.37 1.42 1.49 1.39 1.34 1.27 1.19 1.11 1.05 1.03 1.04
0.54 0.57 0.61 0.62 0.66 0.71 0.84 0.94 1.03 1.18 1.32 1.42 1.44 1.40 1.38 1.43 1.48 1.51 1.49 1.47 1.39 1.36 1.32 1.32 1.33 1.32 1.27 1.18 1.07 1.03 1.03 1.07 1.21 1.28 1.44 1.50 1.47 1.43 1.36 1.25 1.15 1.10 1.05

GEFSMW_prec_meanprecacc_192.txt.gz
Total_Precipitation_Accumulation
1.84 2.22 2.51 3.09 3.71 4.09 4.46 4.59 4.55 4.40 4.18 3.75 3.41 3.16 2.93 2.76 2.50 2.32 2.22 2.09 1.99 2.09 2.38 2.28 2.37 2.32 2.31 2.32 2.34 2.37 2.25 1.92 2.11 2.20 1.79 1.33 1.01 0.97 0.75 0.68 0.69 0.69 0.66
1.76 2.25 2.50 2.71 3.22 3.75 4.19 4.47 4.59 4.45 4.06 3.62 3.35 3.19 3.13 2.78 2.49 2.43 2.43 2.23 2.24 2.22 2.20 2.26 2.23 2.26 2.35 2.25 2.20 2.27 2.09 1.75 1.87 2.03 2.11 1.58 1.24 0.95 0.66 0.70 0.77 0.82 0.86
2.04 2.28 2.42 2.56 2.82 3.27 3.58 3.70 3.84 3.78 3.59 3.57 3.52 3.40 3.34 2.91 2.72 2.69 2.66 2.47 2.44 2.36 2.31 2.25 2.13 2.07 1.95 1.92 1.97 2.01 1.99 1.83 1.73 1.90 2.17 1.82 1.40 1.17 0.83 0.75 0.79 0.93 1.08
1.69 1.79 2.07 2.38 2.61 2.84 3.15 3.38 3.43 3.36 3.24 3.30 3.28 3.13 2.92 2.73 2.78 2.98 2.92 2.63 2.40 2.18 1.95 1.81 1.84 1.83 1.76 1.73 1.55 1.61 1.69 1.62 1.50 1.62 1.72 1.77 1.79 1.71 1.18 0.84 0.77 0.90 1.03
1.43 1.52 1.72 2.03 2.16 2.44 2.69 2.96 3.22 3.28 3.19 3.20 3.12 3.09 2.94 2.88 2.89 2.80 2.69 2.42 2.17 1.87 1.59 1.49 1.56 1.57 1.51 1.42 1.36 1.44 1.35 1.28 1.27 1.42 1.59 1.68 1.74 1.72 1.62 1.26 1.13 1.09 0.96
1.26 1.43 1.61 1.84 1.94 2.06 2.18 2.30 2.53 2.78 2.90 2.89 2.84 2.83 2.74 2.70 2.60 2.39 2.20 1.97 1.78 1.53 1.31 1.21 1.32 1.40 1.41 1.37 1.31 1.34 1.24 1.24 1.36 1.36 1.43 1.59 1.56 1.58 1.68 1.45 1.33 1.22 0.99
0.97 1.19 1.32 1.42 1.54 1.65 1.73 1.84 2.05 2.36 2.44 2.39 2.39 2.47 2.44 2.41 2.29 2.21 2.05 1.83 1.56 1.27 1.20 1.21 1.26 1.30 1.36 1.28 1.27 1.24 1.27 1.38 1.44 1.39 1.36 1.45 1.46 1.50 1.64 1.62 1.47 1.37 1.21
0.74 0.88 1.08 1.28 1.34 1.37 1.46 1.57 1.81 1.99 2.05 1.95 2.06 2.20 2.19 2.25 2.15 2.18 1.99 1.68 1.42 1.29 1.34 1.31 1.23 1.20 1.24 1.16 1.29 1.24 1.26 1.37 1.41 1.26 1.43 1.46 1.45 1.60 1.75 1.81 1.81 1.65 1.45
0.72 0.77 0.83 0.98 1.04 1.07 1.15 1.27 1.61 1.82 1.88 1.85 1.95 2.03 2.08 2.07 1.98 1.89 1.73 1.48 1.42 1.35 1.47 1.44 1.38 1.30 1.31 1.37 1.51 1.48 1.51 1.65 1.62 1.59 1.72 1.65 1.53 1.58 1.63 1.73 1.82 1.92 1.72
0.52 0.56 0.55 0.62 0.74 0.90 1.08 1.23 1.34 1.54 1.71 1.74 1.77 1.79 1.90 1.84 1.74 1.68 1.51 1.32 1.22 1.25 1.41 1.47 1.44 1.39 1.40 1.50 1.63 1.66 1.79 1.88 1.85 1.87 1.94 1.88 1.73 1.73 1.77 1.76 1.86 2.00 1.90
0.40 0.44 0.50 0.55 0.69 0.81 0.97 1.14 1.19 1.33 1.46 1.53 1.63 1.63 1.60 1.63 1.64 1.52 1.34 1.27 1.25 1.24 1.29 1.38 1.45 1.42 1.43 1.52 1.59 1.58 1.80 1.90 1.88 1.84 1.83 1.77 1.78 1.75 1.69 1.77 1.90 2.04 2.05
0.47 0.48 0.57 0.62 0.71 0.80 0.85 0.92 1.00 1.11 1.26 1.43 1.62 1.70 1.66 1.67 1.62 1.45 1.29 1.24 1.26 1.30 1.33 1.41 1.43 1.32 1.30 1.43 1.48 1.52 1.66 1.74 1.73 1.68 1.69 1.55 1.56 1.60 1.54 1.64 1.71 1.81 2.00
0.53 0.55 0.60 0.58 0.64 0.73 0.81 0.76 0.81 0.95 1.12 1.37 1.71 1.88 1.85 1.77 1.67 1.49 1.29 1.21 1.23 1.30 1.31 1.32 1.34 1.37 1.47 1.54 1.53 1.50 1.47 1.48 1.53 1.67 1.75 1.59 1.57 1.52 1.52 1.53 1.51 1.58 1.72
0.59 0.65 0.61 0.67 0.70 0.69 0.77 0.77 0.82 0.88 1.04 1.24 1.48 1.59 1.50 1.45 1.41 1.33 1.22 1.15 1.16 1.23 1.26 1.28 1.29 1.35 1.47 1.50 1.53 1.56 1.49 1.41 1.40 1.47 1.53 1.52 1.52 1.49 1.56 1.52 1.50 1.51 1.60
0.54 0.54 0.51 0.57 0.64 0.67 0.75 0.71 0.68 0.69 0.81 0.99 1.09 1.20 1.20 1.17 1.14 1.15 1.15 1.13 1.22 1.25 1.32 1.36 1.36 1.31 1.34 1.28 1.28 1.29 1.27 1.31 1.26 1.19 1.20 1.23 1.32 1.32 1.31 1.24 1.36 1.48 1.52
0.36 0.35 0.45 0.52 0.52 0.53 0.58 0.53 0.57 0.67 0.78 0.87 0.97 1.11 1.21 1.20 1.14 1.12 1.14 1.12 1.19 1.25 1.32 1.31 1.37 1.35 1.13 1.20 1.19 1.20 1.32 1.38 1.34 1.27 1.19 1.15 1.13 1.06 1.02 1.00 1.07 1.26 1.38
0.31 0.26 0.31 0.39 0.42 0.45 0.48 0.58 0.69 0.78 0.87 0.95 1.01 1.13 1.22 1.26 1.24 1.17 1.22 1.23 1.29 1.36 1.37 1.33 1.32 1.33 1.36 1.37 1.24 1.10 1.09 1.17 1.20 1.21 1.20 1.05 0.96 1.04 1.00 1.03 1.02 1.03 1.13
0.32 0.25 0.25 0.29 0.36 0.44 0.53 0.67 0.89 1.01 1.02 1.06 1.11 1.24 1.33 1.31 1.32 1.33 1.39 1.49 1.56 1.58 1.57 1.52 1.42 1.45 1.47 1.38 1.18 1.10 1.05 1.10 1.14 1.17 1.21 1.21 1.12 1.10 1.17 1.20 1.16 1.07 1.05
0.35 0.33 0.30 0.38 0.46 0.51 0.56 0.74 0.93 1.12 1.18 1.15 1.19 1.32 1.41 1.45 1.51 1.57 1.58 1.63 1.70 1.66 1.62 1.61 1.65 1.61 1.66 1.64 1.40 1.32 1.23 1.26 1.27 1.28 1.27 1.25 1.17 1.23 1.19 1.17 1.17 1.12 1.07
0.43 0.43 0.42 0.50 0.61 0.66 0.73 0.87 0.98 1.09 1.23 1.29 1.40 1.55 1.71 1.74 1.79 1.94 2.01 1.93 1.86 1.74 1.78 1.78 1.79 1.80 1.87 2.02 1.76 1.55 1.44 1.46 1.43 1.47 1.40 1.33 1.25 1.26 1.20 1.10 1.12 1.11 1.11
0.52 0.49 0.50 0.59 0.73 0.84 0.93 1.05 1.19 1.28 1.26 1.33 1.48 1.70 1.85 1.93 2.00 2.13 2.21 2.20 2.18 2.15 2.09 2.02 2.01 1.99 2.02 2.12 1.86 1.66 1.56 1.61 1.67 1.65 1.52 1.49 1.44 1.27 1.24 1.19 1.18 1.23 1.24
0.63 0.62 0.63 0.76 0.90 1.02 1.05 1.14 1.22 1.25 1.29 1.33 1.45 1.58 1.72 1.76 1.84 2.06 2.16 2.24 2.27 2.24 2.16 2.10 1.98 1.99 1.97 1.90 1.74 1.58 1.50 1.60 1.76 1.82 1.71 1.61 1.51 1.29 1.23 1.16 1.19 1.21 1.11
0.62 0.65 0.70 0.89 1.07 1.19 1.23 1.29 1.22 1.29 1.34 1.40 1.53 1.65 1.74 1.81 1.90 1.95 1.94 2.03 2.11 2.11 2.04 2.02 1.96 1.93 1.93 1.90 1.66 1.42 1.32 1.33 1.41 1.58 1.66 1.53 1.39 1.22 1.09 1.07 1.05 0.96 0.86
0.50 0.54 0.65 0.75 0.86 0.96 1.06 1.19 1.28 1.36 1.42 1.49 1.54 1.61 1.73 1.76 1.79 1.90 1.98 2.04 2.15 2.24 2.15 2.04 1.96 1.91 1.86 1.75 1.56 1.37 1.27 1.30 1.36 1.46 1.52 1.39 1.27 1.12 1.04 0.98 0.90 0.84 0.88
0.50 0.53 0.63 0.67 0.74 0.81 0.88 0.98 1.08 1.21 1.30 1.37 1.43 1.49 1.53 1.61 1.68 1.73 1.81 1.82 1.90 1.89 1.86 1.81 1.80 1.78 1.73 1.56 1.47 1.35 1.24 1.28 1.39 1.44 1.50 1.40 1.35 1.28 1.20 1.12 1.06 1.04 1.04
0.56 0.59 0.62 0.63 0.67 0.72 0.85 0.96 1.06 1.20 1.34 1.44 1.46 1.41 1.39 1.45 1.50 1.53 1.52 1.49 1.42 1.39 1.35 1.35 1.35 1.33 1.27 1.19 1.07 1.03 1.03 1.07 1.21 1.28 1.45 1.51 1.48 1.44 1.37 1.25 1.15 1.10 1.06

GEFSMW_prec_meanprecacc_198.txt.gz
Total_Precipitation_Accumulation
1.86 2.27 2.56 3.12 3.74 4.11 4.48 4.60 4.57 4.42 4.20 3.77 3.42 3.17 2.94 2.79 2.53 2.34 2.24 2.11 2.01 2.10 2.40 2.30 2.39 2.34 2.34 2.35 2.39 2.41 2.27 1.93 2.12 2.22 1.81 1.36 1.06 1.04 0.81 0.73 0.74 0.75 0.73
1.78 2.30 2.59 2.78 3.26 3.78 4.22 4.48 4.61 4.46 4.08 3.63 3.37 3.21 3.15 2.81 2.51 2.46 2.46 2.26 2.26 2.24 2.23 2.30 2.26 2.30 2.38 2.28 2.24 2.31 2.15 1.79 1.91 2.07 2.14 1.60 1.26 0.97 0.69 0.74 0.83 0.91 0.97
2.06 2.32 2.51 2.67 2.94 3.32 3.61 3.72 3.86 3.80 3.62 3.60 3.56 3.45 3.38 2.95 2.78 2.74 2.70 2.52 2.48 2.40 2.35 2.29 2.18 2.11 1.99 1.95 2.00 2.05 2.04 1.88 1.78 1.95 2.22 1.85 1.42 1.19 0.84 0.79 0.86 1.04 1.23
1.71 1.86 2.17 2.48 2.64 2.86 3.17 3.40 3.44 3.38 3.27 3.34 3.33 3.17 2.95 2.77 2.84 3.05 2.99 2.69 2.47 2.26 2.01 1.86 1.88 1.87 1.81 1.77 1.57 1.64 1.74 1.68 1.53 1.65 1.76 1.81 1.83 1.75 1.20 0.86 0.81 0.98 1.13
1.46 1.56 1.76 2.07 2.18 2.45 2.70 2.97 3.23 3.30 3.23 3.24 3.15 3.13 2.99 2.95 2.95 2.87 2.75 2.49 2.25 1.95 1.66 1.55 1.62 1.63 1.57 1.48 1.41 1.49 1.42 1.35 1.31 1.46 1.64 1.74 1.80 1.78 1.67 1.29 1.18 1.16 1.02
1.30 1.48 1.63 1.85 1.95 2.07 2.19 2.32 2.55 2.82 2.96 2.96 2.91 2.90 2.81 2.75 2.65 2.45 2.26 2.04 1.85 1.61 1.37 1.26 1.37 1.46 1.48 1.44 1.38 1.40 1.30 1.30 1.40 1.39 1.48 1.66 1.64 1.65 1.75 1.49 1.36 1.27 1.03
1.00 1.22 1.34 1.44 1.56 1.67 1.75 1.87 2.09 2.41 2.50 2.47 2.47 2.56 2.54 2.48 2.36 2.28 2.12 1.90 1.62 1.33 1.25 1.27 1.34 1.36 1.41 1.34 1.33 1.31 1.34 1.44 1.49 1.44 1.42 1.51 1.52 1.57 1.72 1.69 1.52 1.41 1.24
0.76 0.90 1.11 1.30 1.36 1.39 1.50 1.64 1.86 2.07 2.12 2.03 2.13 2.28 2.28 2.32 2.22 2.25 2.06 1.76 1.51 1.35 1.40 1.37 1.29 1.26 1.30 1.23 1.39 1.32 1.36 1.47 1.50 1.35 1.51 1.53 1.52 1.69 1.85 1.91 1.90 1.72 1.50
0.73 0.79 0.86 1.01 1.06 1.10 1.20 1.31 1.66 1.88 1.94 1.93 2.03 2.12 2.17 2.14 2.05 1.96 1.82 1.60 1.54 1.46 1.57 1.52 1.45 1.37 1.39 1.47 1.65 1.62 1.64 1.77 1.72 1.68 1.81 1.74 1.62 1.67 1.74 1.84 1.93 2.01 1.79
0.53 0.57 0.58 0.67 0.79 0.97 1.15 1.27 1.38 1.59 1.77 1.81 1.83 1.86 1.98 1.91 1.80 1.75 1.60 1.42 1.32 1.38 1.54 1.62 1.58 1.52 1.52 1.64 1.78 1.79 1.91 2.00 1.96 1.98 2.05 1.98 1.83 1.84 1.88 1.87 1.97 2.12 2.03
0.41 0.45 0.53 0.65 0.77 0.87 1.02 1.18 1.23 1.37 1.50 1.58 1.68 1.70 1.67 1.72 1.74 1.63 1.44 1.35 1.34 1.36 1.44 1.56 1.63 1.58 1.57 1.66 1.73 1.71 1.93 2.03 2.03 1.97 1.93 1.85 1.89 1.89 1.84 1.91 2.03 2.17 2.18
0.47 0.49 0.61 0.73 0.77 0.86 0.94 0.99 1.06 1.18 1.32 1.49 1.69 1.77 1.76 1.77 1.71 1.55 1.40 1.37 1.40 1.44 1.48 1.56 1.58 1.47 1.46 1.59 1.63 1.67 1.82 1.92 1.87 1.80 1.79 1.64 1.68 1.74 1.66 1.75 1.82 1.90 2.09
0.54 0.57 0.64 0.65 0.68 0.78 0.89 0.85 0.90 1.06 1.24 1.47 1.80 1.95 1.93 1.83 1.74 1.59 1.40 1.33 1.37 1.45 1.49 1.50 1.50 1.51 1.59 1.66 1.65 1.62 1.59 1.58 1.63 1.78 1.85 1.66 1.64 1.58 1.59 1.61 1.58 1.64 1.78
0.61 0.67 0.66 0.74 0.74 0.72 0.81 0.82 0.88 0.98 1.20 1.38 1.56 1.65 1.56 1.51 1.51 1.45 1.34 1.26 1.27 1.35 1.43 1.47 1.53 1.56 1.60 1.61 1.64 1.65 1.57 1.49 1.48 1.55 1.59 1.57 1.57 1.53 1.61 1.56 1.54 1.55 1.66
0.57 0.58 0.54 0.62 0.69 0.69 0.78 0.75 0.73 0.78 0.91 1.09 1.19 1.29 1.29 1.27 1.26 1.27 1.26 1.24 1.33 1.37 1.44 1.49 1.50 1.45 1.45 1.37 1.36 1.39 1.35 1.38 1.33 1.26 1.25 1.27 1.36 1.36 1.37 1.29 1.41 1.54 1.60
0.38 0.37 0.48 0.54 0.56 0.55 0.60 0.56 0.61 0.74 0.88 0.98 1.07 1.23 1.34 1.34 1.29 1.26 1.26 1.25 1.30 1.36 1.43 1.43 1.48 1.45 1.22 1.31 1.31 1.31 1.43 1.50 1.47 1.38 1.29 1.22 1.19 1.13 1.07 1.05 1.13 1.32 1.46
0.34 0.29 0.35 0.43 0.47 0.50 0.51 0.60 0.73 0.85 0.95 1.07 1.16 1.29 1.35 1.40 1.40 1.34 1.40 1.37 1.41 1.49 1.48 1.43 1.41 1.42 1.45 1.47 1.33 1.20 1.20 1.29 1.34 1.33 1.32 1.18 1.08 1.15 1.09 1.10 1.08 1.09 1.19
0.37 0.32 0.32 0.35 0.42 0.48 0.56 0.70 0.96 1.15 1.15 1.26 1.34 1.44 1.51 1.50 1.51 1.52 1.54 1.60 1.67 1.69 1.66 1.59 1.49 1.52 1.54 1.45 1.25 1.19 1.14 1.19 1.23 1.26 1.28 1.27 1.19 1.18 1.25 1.26 1.21 1.11 1.08
0.40 0.39 0.36 0.42 0.51 0.55 0.59 0.78 0.99 1.20 1.30 1.33 1.39 1.49 1.55 1.61 1.69 1.74 1.70 1.74 1.80 1.76 1.71 1.68 1.71 1.67 1.71 1.70 1.48 1.40 1.30 1.33 1.35 1.35 1.33 1.29 1.20 1.27 1.23 1.20 1.20 1.15 1.10
0.49 0.49 0.48 0.56 0.68 0.74 0.78 0.91 1.03 1.15 1.31 1.37 1.48 1.63 1.80 1.83 1.89 2.03 2.09 2.01 1.93 1.82 1.86 1.86 1.86 1.86 1.92 2.08 1.85 1.64 1.51 1.54 1.51 1.55 1.47 1.40 1.29 1.29 1.22 1.11 1.14 1.12 1.13
0.56 0.54 0.55 0.64 0.79 0.89 0.99 1.11 1.24 1.33 1.32 1.38 1.52 1.75 1.91 1.99 2.04 2.18 2.26 2.25 2.22 2.18 2.13 2.07 2.07 2.06 2.09 2.20 1.94 1.73 1.63 1.69 1.74 1.70 1.57 1.53 1.47 1.30 1.27 1.22 1.20 1.25 1.27
0.66 0.66 0.68 0.81 0.96 1.09 1.13 1.20 1.26 1.29 1.31 1.35 1.48 1.61 1.76 1.79 1.87 2.08 2.19 2.26 2.29 2.26 2.19 2.12 2.00 2.02 2.03 1.97 1.83 1.66 1.58 1.67 1.81 1.86 1.74 1.65 1.54 1.32 1.25 1.18 1.21 1.24 1.14
0.67 0.70 0.76 0.95 1.13 1.28 1.34 1.39 1.28 1.33 1.37 1.43 1.55 1.68 1.76 1.83 1.92 1.97 1.96 2.04 2.13 2.13 2.05 2.04 1.97 1.94 1.96 1.94 1.70 1.47 1.38 1.39 1.46 1.63 1.71 1.57 1.42 1.24 1.10 1.08 1.06 0.98 0.88
0.55 0.60 0.69 0.79 0.90 1.09 1.25 1.34 1.37 1.41 1.46 1.52 1.56 1.63 1.74 1.77 1.80 1.91 1.98 2.05 2.16 2.26 2.17 2.06 1.97 1.92 1.87 1.77 1.58 1.39 1.30 1.34 1.41 1.51 1.56 1.41 1.28 1.12 1.04 0.98 0.90 0.85 0.88
0.55 0.59 0.67 0.70 0.77 0.85 0.95 1.04 1.13 1.25 1.32 1.38 1.44 1.50 1.53 1.61 1.68 1.73 1.82 1.83 1.91 1.91 1.89 1.84 1.82 1.80 1.74 1.58 1.48 1.36 1.25 1.30 1.40 1.45 1.51 1.41 1.35 1.28 1.20 1.12 1.06 1.04 1.05
0.60 0.63 0.66 0.66 0.71 0.75 0.89 0.99 1.08 1.22 1.36 1.46 1.49 1.43 1.40 1.45 1.50 1.53 1.52 1.50 1.43 1.40 1.37 1.38 1.38 1.36 1.30 1.21 1.09 1.04 1.04 1.08 1.21 1.28 1.45 1.51 1.48 1.44 1.37 1.25 1.15 1.10 1.06